KBAFKASH

Guest
Details From KBAF - BARNES MUNI
To KASH - Boire Field Nashua
Flight Number -
Tags generated
Created
Modified
Stats Distance 65 nm / 121 km
Max Altitude 4,200 ft / 1,280 m
Waypoints 3
Social Downloads 0
Likes 0
Share VATSIM

Download

Looking for another format? Having issues loading an existing format? Contact us
Advertisement - Login to hide

Notes

Basic altitude profile: - Ascent Rate: 2500ft/min - Ascent Speed: 250kts - Cruise Altitude: 22000ft - Cruise Speed: 420kts - Descent Rate: 1500ft/min - Descent Speed: 250kts

Route

KBAF FAIDS KASH

ID Type Via Altitude Latitude Longitude Leg Dist Tot Dist Heading (true) Name
O KBAF APT - 0 ft / 0 m 42.15783˚ -72.71551˚ - 0 nm - BARNES MUNI
FAIDS FIX - 4,200 ft / 1,280 m 42.28354˚ -72.50942˚ 11 nm 11 nm 50° / 51° -
O KASH APT - 0 ft / 0 m 42.78176˚ -71.51477˚ 53 nm 65 nm 55° / 56° Boire Field Nashua

Altitude Profile

Advertisement - Login to hide

KBAF

Details ICAO KBAF (BAF)
Name BARNES MUNI
Region United States
Timezone America/New_York (UTC-4.0)
Stats Elevation 271 ft / 83 m (AMSL)
Location 42.157830° -72.715514°
Runways 2
Magnetic Variation 13.857° W

METAR

KBAF 202153Z 30016G21KT 10SM CLR 24/16 A2991 RMK AO2 SLP126 T02390156

Decode

TAF

TAF AMD KBAF 202024Z 2020/2118 29010KT P6SM -SHRA BKN040 FM202200 31009KT P6SM SCT040 FM210500 34004KT P6SM FEW250 FM210900 00000KT P6SM SKC

Decode

Departure Runways

ID Width Length Bearing (true) Bearing (mag) Surface Threshold Offset Overrun Length
02 151 ft / 46 m 9,010 ft / 2,746 m 10.18° 24.04° Asphalt 0 ft / 0 m 610 ft / 186 m
15 102 ft / 31 m 5,005 ft / 1,525 m 140.31° 154.17° Asphalt 0 ft / 0 m 0 ft / 0 m
20 151 ft / 46 m 9,010 ft / 2,746 m 190.19° 204.05° Asphalt 0 ft / 0 m 1,001 ft / 305 m
33 102 ft / 31 m 5,005 ft / 1,525 m 320.32° 334.18° Asphalt 226 ft / 69 m 0 ft / 0 m

KASH

Details ICAO KASH (ASH)
Name Boire Field Nashua
Region United States
Timezone America/New_York (UTC-4.0)
Stats Elevation 199 ft / 61 m (AMSL)
Location 42.781757° -71.514774°
Runways 1
Magnetic Variation 14.546° W

METAR

KASH 202156Z 33009G17KT 10SM BKN035 OVC060 23/16 A2989 RMK AO2 SLP132 T02280156

Decode

TAF

Not found

Destination Runways

ID Width Length Bearing (true) Bearing (mag) Surface Threshold Offset Overrun Length
14 98 ft / 30 m 5,493 ft / 1,674 m 122.78° 137.33° Asphalt 0 ft / 0 m 0 ft / 0 m
32 98 ft / 30 m 5,493 ft / 1,674 m 302.80° 317.35° Asphalt 0 ft / 0 m 0 ft / 0 m

Approach Navaids

Runway Type Ident Frequency Range Bearing (true) Bearing (mag) Slope Elevation
14 Localiser IASH 109.70 MHz 18 nm / 33 km 122.80° 137.35° - 186 ft / 57 m (AMSL)
14 Glidescope IASH 109.70 MHz 10 nm / 19 km 122.79° 137.34° 3.00° 194 ft / 59 m (AMSL)